Wind_Speed
27 26 26 28 29 30 29 27 25 23 21 20 19 18 17 15 15 14 13 12 11 11 10 9 8 7 6 6 5 5 5 5 5 5 4 4 4 4 4 4 5 6 7
28 27 26 28 30 31 31 30 28 26 24 23 22 20 19 18 17 16 14 13 13 12 12 11 10 9 8 7 7 6 6 6 6 6 5 5 5 5 5 5 6 6 7
28 28 28 28 30 31 32 32 32 30 28 26 24 23 22 20 19 18 17 15 15 14 13 13 12 10 9 9 8 8 7 7 7 7 6 6 6 6 6 6 6 7 7
29 29 29 29 31 33 34 34 33 33 31 29 27 26 24 23 21 20 19 18 17 16 15 14 13 12 11 10 9 9 8 8 8 8 7 7 7 7 7 7 7 7 8
31 30 30 30 32 34 35 36 35 35 34 32 30 28 27 26 24 23 21 20 19 18 17 16 15 14 13 12 11 10 10 9 9 9 9 8 8 8 8 8 8 8 9
33 33 32 32 33 34 36 37 37 37 36 35 33 31 29 28 26 25 23 22 21 20 19 18 16 16 15 13 13 12 11 11 10 10 10 10 9 9 9 9 9 9 10
36 35 35 34 34 36 37 39 39 39 38 37 36 34 32 30 29 27 25 24 23 22 20 19 18 17 16 15 14 14 13 12 11 11 11 11 11 10 10 10 10 11 11
38 37 36 36 36 37 38 40 41 41 40 39 38 36 34 33 31 30 28 26 25 24 22 21 20 19 18 17 16 15 15 14 13 13 12 12 12 12 12 12 12 12 12
39 38 38 38 38 38 39 41 42 42 42 41 40 39 37 35 34 32 30 29 27 26 24 23 22 21 20 19 18 17 16 16 15 14 14 14 14 13 13 13 13 14 14
40 39 38 38 38 39 40 41 43 44 44 43 42 41 39 38 36 34 33 31 29 28 26 25 24 22 22 20 20 19 18 18 17 16 16 15 15 15 15 15 15 15 15
42 41 38 38 38 39 41 42 44 45 46 45 44 43 41 40 38 36 34 33 31 29 28 27 26 24 23 22 21 21 20 20 19 18 18 17 17 17 17 17 17 17 17
45 43 42 40 40 40 42 43 45 46 47 47 46 45 43 42 40 38 36 34 33 31 30 29 28 26 25 24 23 22 22 22 21 20 20 20 19 19 19 19 19 19 20
47 46 45 43 42 42 42 43 46 47 48 48 47 47 45 44 42 40 38 36 35 33 32 30 29 28 27 26 25 25 24 24 23 22 22 22 22 21 21 21 21 22 22
49 48 46 46 45 44 43 43 46 49 49 50 49 48 47 45 43 42 40 38 37 35 34 32 32 30 29 28 27 27 26 25 25 24 24 24 24 24 23 23 23 24 24
50 49 47 47 47 46 45 45 46 49 50 50 50 49 48 47 45 44 42 40 39 38 36 35 33 33 31 30 30 29 28 27 27 27 26 26 26 26 25 25 25 26 26
52 51 49 48 47 49 48 47 46 50 51 51 51 50 50 49 48 46 44 42 41 40 38 37 36 35 34 33 32 31 30 30 30 29 28 28 28 28 27 27 27 27 28
53 53 52 50 49 49 49 49 47 50 53 53 52 51 51 51 50 49 47 45 43 42 41 40 38 37 36 35 34 33 33 33 32 31 30 30 30 30 29 29 29 29 29
53 53 53 51 50 50 50 49 47 49 52 54 53 52 52 53 52 52 50 48 46 45 43 42 41 39 39 38 37 36 36 35 34 33 33 32 31 31 31 31 31 31 31
54 53 52 51 51 49 49 49 50 50 50 53 54 53 55 55 54 53 51 50 49 47 46 45 43 42 41 40 40 39 38 38 36 35 34 34 33 32 32 32 32 33 33
54 53 51 51 51 49 47 47 48 50 50 52 52 52 53 55 56 56 54 52 50 49 49 48 46 45 44 43 42 41 39 39 37 36 35 35 35 34 34 33 34 33 33
50 51 51 51 50 49 47 46 46 48 49 50 50 52 52 54 55 56 56 55 54 52 51 50 49 47 45 44 42 41 40 39 38 37 37 36 35 35 35 35 35 34 34
45 48 49 50 49 47 46 46 45 47 47 50 50 52 52 52 53 54 54 55 55 54 53 52 49 48 46 44 43 43 42 41 40 39 38 38 37 36 36 35 35 35 33
39 42 44 46 46 46 45 45 46 46 46 48 49 50 52 51 51 51 51 52 52 51 52 51 49 48 47 46 45 44 43 42 42 42 40 40 40 38 37 36 35 34 34
34 36 39 42 44 44 44 44 45 44 45 45 47 48 50 50 51 51 51 50 51 51 51 51 50 49 48 47 46 45 45 45 44 42 41 41 40 38 37 36 36 35 35
29 32 35 38 40 42 42 41 40 40 42 44 45 46 47 48 50 52 51 50 50 51 50 50 51 51 50 49 48 46 46 45 44 42 40 40 39 38 37 37 37 37 37
23 27 30 32 35 37 38 38 38 38 39 41 42 44 45 47 49 51 50 48 48 49 50 50 49 49 49 49 48 47 46 44 43 42 41 39 39 38 38 38 39 39 39
Wind_Direction
251 250 248 245 243 241 239 238 237 237 238 239 242 244 245 248 250 251 251 252 256 258 260 263 267 271 271 269 263 256 252 251 249 246 245 252 264 280 298 313 323 333 341
253 251 250 247 244 242 240 238 237 237 237 238 240 242 243 245 248 250 250 251 254 256 258 261 263 266 267 267 263 258 255 254 254 252 253 257 264 275 290 303 314 321 330
255 252 250 249 246 243 241 239 238 237 237 237 239 240 242 243 246 249 248 249 251 254 257 259 260 262 265 265 262 259 257 256 256 256 257 259 265 274 285 295 303 309 318
255 253 250 249 247 244 241 240 238 237 237 237 238 239 240 241 243 247 247 248 250 253 255 256 258 260 262 262 260 259 259 258 257 257 258 260 265 272 280 287 293 299 308
255 253 250 248 247 245 242 240 238 237 237 237 237 238 239 240 241 244 246 247 249 251 253 254 256 258 260 260 259 259 259 259 259 258 258 260 264 270 277 282 287 294 302
254 253 250 248 246 244 243 240 238 237 236 236 236 237 238 240 241 243 245 246 248 250 252 253 254 256 257 258 258 258 258 260 261 260 260 262 265 269 275 279 284 290 297
254 253 250 247 245 244 242 241 239 237 236 235 235 236 237 239 241 242 243 244 247 249 251 252 253 255 256 256 257 258 258 260 261 260 261 262 265 269 273 277 281 286 293
253 253 251 248 245 243 241 240 238 237 235 235 235 235 236 237 239 241 243 244 246 248 250 251 252 253 255 255 255 256 257 259 260 261 261 262 265 269 272 276 281 285 290
252 251 250 248 246 242 240 239 237 236 235 234 234 235 236 237 238 239 241 243 245 247 248 250 251 252 254 254 254 255 256 258 259 261 262 263 266 269 273 276 280 284 289
249 248 248 247 244 242 240 238 237 235 235 234 234 235 236 236 237 238 240 242 245 247 248 249 250 251 252 253 253 254 256 257 258 260 262 264 266 269 272 275 278 282 286
246 245 244 243 240 240 239 237 236 235 234 234 234 235 235 236 237 238 240 242 244 246 248 249 249 250 251 252 253 254 256 257 257 259 261 264 266 268 270 273 276 280 283
244 242 241 239 237 239 239 238 236 234 233 233 234 234 235 236 237 238 239 241 243 245 247 248 248 250 250 251 253 254 256 257 258 258 260 263 265 267 270 273 276 279 282
243 240 238 236 236 237 237 237 236 234 233 233 233 233 234 235 236 238 239 241 243 245 246 247 248 249 250 251 252 254 256 257 259 259 260 262 264 266 269 272 275 278 281
241 239 236 235 234 234 235 236 235 233 232 232 233 233 234 235 236 238 239 241 242 244 245 246 247 248 249 250 252 254 255 257 259 260 261 263 265 267 269 272 275 278 281
237 237 235 233 232 231 232 233 233 232 231 232 232 233 233 234 235 237 238 240 241 243 244 246 247 248 249 250 251 253 254 256 258 260 261 263 265 267 269 272 275 277 281
234 234 232 232 231 231 231 232 232 230 230 230 232 233 233 234 235 236 237 238 240 242 244 245 246 248 249 250 251 252 254 256 258 259 260 263 265 268 270 272 274 277 280
234 232 231 230 230 230 230 231 231 229 229 230 231 232 232 233 234 235 236 237 240 242 244 245 246 248 249 250 251 252 254 256 258 259 260 263 265 267 270 272 274 277 280
232 230 228 228 230 230 229 229 230 229 229 229 230 231 231 232 233 233 235 237 239 242 244 245 246 248 250 250 251 252 254 255 257 258 259 262 264 267 269 271 273 277 280
231 229 227 226 227 228 228 228 230 231 232 230 230 231 231 231 232 232 235 236 239 241 243 245 247 248 249 250 251 253 255 256 257 257 258 260 263 266 269 270 273 276 279
231 229 227 226 225 224 225 227 229 231 232 229 229 229 231 230 231 233 234 237 239 241 243 244 246 248 250 251 252 254 255 256 257 257 258 259 262 266 268 270 273 275 278
229 228 227 226 225 224 224 226 228 231 231 229 230 231 232 230 231 233 235 237 238 240 242 243 246 248 250 251 252 254 254 255 256 256 258 259 262 265 267 270 272 274 277
228 227 226 224 224 224 225 227 229 229 229 229 230 230 229 230 230 232 234 237 238 241 242 244 246 246 248 250 251 253 253 256 256 257 259 261 262 264 266 268 271 273 275
227 226 225 223 223 223 225 227 228 227 229 230 230 231 231 232 230 230 234 236 239 242 244 245 244 246 248 250 250 252 254 256 256 258 259 261 264 265 265 267 269 271 274
227 226 224 221 220 221 223 226 227 227 229 230 230 232 232 232 231 232 234 237 239 242 244 245 246 248 249 249 251 254 254 256 258 259 260 262 263 264 265 266 268 270 273
224 224 223 223 222 222 225 226 227 228 228 230 231 232 232 231 232 234 235 239 241 242 244 245 247 249 249 249 252 253 255 256 258 259 260 260 261 263 265 268 269 270 273
217 218 220 221 220 222 224 226 228 228 227 228 231 231 232 232 234 236 238 239 241 241 242 244 246 249 249 250 251 253 255 257 257 257 258 258 260 262 265 269 270 271 273
Height
5852 5853 5855 5857 5859 5861 5864 5866 5868 5870 5871 5873 5874 5876 5877 5879 5880 5881 5881 5882 5882 5882 5882 5882 5882 5882 5882 5882 5882 5882 5882 5882 5882 5881 5881 5881 5881 5880 5880 5879 5878 5877 5876
5847 5849 5851 5852 5855 5857 5859 5862 5864 5866 5868 5870 5871 5873 5875 5876 5878 5879 5879 5880 5880 5881 5881 5881 5881 5881 5881 5881 5881 5881 5881 5881 5881 5881 5880 5880 5880 5880 5879 5878 5878 5877 5876
5842 5844 5846 5847 5849 5852 5854 5857 5860 5862 5865 5866 5868 5870 5872 5873 5875 5876 5877 5878 5878 5879 5879 5879 5880 5880 5880 5880 5880 5880 5880 5880 5880 5880 5880 5879 5879 5879 5878 5878 5877 5876 5875
5836 5838 5840 5842 5844 5846 5849 5852 5855 5858 5860 5863 5865 5866 5868 5870 5872 5873 5874 5875 5876 5877 5877 5878 5878 5878 5879 5879 5879 5879 5879 5879 5879 5879 5878 5878 5878 5877 5877 5876 5876 5875 5874
5829 5831 5834 5836 5838 5840 5843 5846 5849 5852 5855 5858 5860 5862 5865 5866 5868 5870 5871 5873 5873 5874 5875 5875 5876 5877 5877 5877 5877 5877 5877 5877 5877 5877 5877 5877 5876 5876 5876 5875 5874 5874 5873
5822 5824 5827 5829 5831 5834 5837 5840 5843 5847 5850 5853 5856 5858 5860 5862 5864 5866 5868 5869 5870 5871 5872 5873 5874 5874 5875 5875 5875 5876 5876 5876 5876 5876 5876 5875 5875 5874 5874 5874 5873 5872 5871
5814 5817 5820 5822 5825 5827 5830 5833 5837 5840 5844 5847 5850 5853 5856 5858 5860 5862 5864 5866 5867 5868 5869 5870 5871 5872 5872 5873 5873 5873 5874 5874 5874 5874 5874 5874 5873 5873 5872 5872 5871 5870 5869
5806 5809 5812 5814 5817 5820 5823 5826 5830 5834 5837 5841 5844 5848 5850 5853 5856 5858 5860 5862 5863 5865 5866 5867 5868 5869 5870 5870 5871 5871 5871 5871 5872 5872 5872 5871 5871 5871 5870 5870 5869 5868 5868
5798 5801 5803 5806 5809 5812 5815 5819 5822 5826 5830 5834 5838 5842 5845 5848 5850 5853 5855 5857 5859 5861 5862 5863 5865 5866 5867 5867 5868 5868 5869 5869 5869 5869 5869 5869 5869 5869 5868 5868 5867 5866 5865
5789 5792 5795 5798 5801 5804 5807 5811 5815 5819 5823 5827 5831 5835 5839 5842 5845 5848 5850 5853 5855 5857 5858 5860 5861 5862 5863 5864 5865 5865 5866 5866 5866 5867 5867 5866 5866 5866 5866 5865 5864 5864 5863
5780 5783 5786 5789 5792 5795 5799 5802 5807 5811 5815 5820 5824 5828 5832 5835 5839 5842 5845 5848 5850 5852 5854 5855 5857 5858 5859 5860 5861 5862 5862 5863 5863 5863 5863 5863 5863 5863 5862 5862 5861 5861 5860
5770 5774 5777 5780 5784 5787 5791 5794 5798 5803 5808 5812 5817 5821 5825 5829 5832 5836 5839 5842 5845 5847 5849 5851 5852 5854 5855 5856 5857 5858 5858 5859 5859 5860 5860 5860 5860 5859 5859 5859 5858 5857 5856
5759 5763 5767 5771 5775 5779 5782 5785 5790 5794 5799 5804 5809 5813 5818 5822 5826 5829 5833 5836 5839 5841 5843 5845 5847 5849 5850 5851 5853 5853 5854 5855 5855 5856 5856 5856 5856 5856 5855 5855 5854 5853 5853
5747 5752 5757 5761 5765 5769 5773 5777 5781 5785 5790 5796 5801 5805 5810 5814 5818 5823 5826 5829 5832 5835 5837 5840 5842 5843 5845 5846 5848 5849 5849 5850 5851 5851 5851 5851 5851 5851 5851 5850 5850 5849 5848
5736 5741 5746 5751 5756 5760 5764 5768 5772 5777 5782 5787 5792 5797 5802 5807 5811 5815 5819 5822 5825 5828 5831 5833 5835 5837 5839 5841 5842 5843 5844 5845 5846 5846 5846 5847 5847 5847 5846 5846 5845 5844 5844
5724 5730 5735 5741 5745 5750 5755 5759 5763 5768 5773 5778 5783 5788 5794 5798 5803 5807 5811 5815 5818 5821 5824 5826 5829 5831 5833 5834 5836 5837 5838 5839 5840 5841 5841 5841 5841 5841 5841 5841 5840 5839 5838
5711 5718 5724 5730 5735 5740 5745 5749 5754 5758 5763 5769 5774 5779 5784 5789 5794 5798 5803 5807 5810 5813 5816 5819 5822 5824 5826 5828 5829 5831 5832 5833 5834 5835 5835 5835 5836 5836 5836 5835 5834 5834 5833
5699 5706 5713 5719 5725 5730 5735 5739 5744 5749 5754 5760 5765 5770 5775 5780 5785 5789 5794 5798 5802 5805 5808 5811 5814 5816 5819 5821 5822 5824 5825 5826 5827 5828 5829 5829 5830 5830 5829 5829 5828 5828 5827
5688 5695 5702 5708 5714 5719 5725 5730 5735 5740 5745 5751 5756 5761 5766 5771 5776 5780 5785 5789 5793 5796 5800 5803 5806 5808 5811 5813 5814 5816 5817 5819 5820 5821 5821 5822 5823 5823 5823 5822 5822 5821 5820
5677 5684 5690 5696 5703 5709 5714 5720 5725 5730 5736 5741 5746 5751 5756 5761 5766 5771 5776 5780 5784 5787 5791 5794 5797 5800 5802 5804 5806 5808 5810 5811 5812 5813 5814 5815 5815 5816 5816 5815 5815 5814 5813
5667 5674 5680 5686 5693 5699 5705 5711 5716 5721 5727 5732 5737 5742 5748 5752 5757 5762 5767 5771 5774 5778 5782 5785 5788 5791 5793 5795 5798 5800 5801 5803 5805 5805 5806 5807 5807 5808 5808 5808 5808 5807 5806
5658 5664 5670 5677 5683 5690 5696 5703 5708 5713 5718 5723 5728 5733 5739 5743 5748 5753 5757 5761 5765 5769 5772 5775 5778 5781 5784 5787 5789 5790 5793 5795 5796 5797 5798 5799 5799 5800 5800 5800 5800 5799 5799
5650 5656 5661 5668 5675 5682 5688 5694 5699 5704 5709 5714 5720 5725 5730 5735 5739 5744 5748 5752 5756 5760 5763 5766 5769 5772 5775 5777 5779 5782 5784 5786 5787 5788 5789 5790 5791 5792 5792 5792 5792 5792 5791
5643 5649 5654 5660 5667 5674 5680 5686 5691 5696 5701 5707 5712 5717 5722 5726 5730 5735 5739 5743 5747 5750 5754 5757 5760 5763 5765 5767 5770 5772 5774 5776 5777 5779 5780 5781 5782 5783 5783 5783 5783 5783 5783
5638 5643 5648 5654 5661 5667 5673 5679 5684 5689 5695 5699 5704 5708 5713 5718 5722 5726 5730 5734 5738 5741 5745 5748 5750 5753 5756 5758 5760 5762 5764 5766 5768 5769 5771 5772 5773 5774 5774 5774 5774 5774 5774
5634 5639 5644 5649 5655 5661 5667 5672 5677 5682 5687 5691 5696 5700 5705 5710 5714 5718 5722 5725 5729 5732 5735 5738 5741 5743 5746 5748 5750 5752 5754 5757 5758 5759 5761 5762 5763 5764 5765 5765 5765 5765 5764